Terminal Aerodrome Forecast
Issued by NWS Spokane, WA

Home | Current Version | Previous Version | Text Only | Print | Product List | Glossary On
Versions: 1 2 3 4 5 6 7 8 9 10 11 12 13 14 15 16 17 18 19 20 21 22 23 24 25 26 27 28
000
FTUS46 KOTX 231138
TAFEAT
TAF
KEAT 231138Z 2312/2412 27006KT P6SM FEW070
     FM232100 VRB04KT P6SM FEW070 SCT150
     FM240800 01004KT P6SM SCT080 BKN160=

USA.gov is the U.S. government's official web portal to all federal, state and local government web resources and services.